FORMOSAT 3B

导读

FORMOSAT-3B(福尔摩沙卫星三号B星)是中国台湾地区参与研发的气象探测卫星,于2006年4月15日发射,属于FORMOSAT-3(福卫三号)星座六颗卫星之一。该卫星属于全球气象卫星观测系统的一部分,主要用于收集全球电离层、气象数据,支持天气预报、气候研究与空间天气监测,通过GPS掩星技术获取大气参数,提升气象预报精度。

基本信息
目录编号:
29048
目录名称:
FORMOSAT 3B
国际标识:
2006-011B
轨道中心:
EARTH
卫星名称:
FORMOSAT 3B
卫星全名:
--
卫星状态:
在轨 (已飞行7454 天)
发射日期:
2006-04-15 UTC
国别 :
(TW)
星等 :
--
该卫星已列入 空间交会检测服务 Space Conjunction Data Service (SCDS) ,当前飞行风险评估等级: 无高风险
轨道信息
数据来源 国际轨道数据
星历时间: 2026-09-11T02:35:15+0800
20小时前
查看轨道信息
半长轴: 7165.051km
偏心率: 0.0040986
轨道倾角: 71.966°
近地点辐角 50.764°
升交点赤经 44.204°
平近点角 309.712°
近地点: 757.547km
远地点: 816.281km
周期: 100.598分钟
每日圈数: 14.314425
详细信息
使用方式:
暂无
2D轨道图
3D轨道图
轨道高度分析图
轨道倾角分析图
轨道综合分析图
查看轨道综合分析图
交会数据列表
事件ID 空间交会对象 最接近时刻(TCA) 交会距离 交会风险概率(CRP) 交会风险指数(CRI) 操作
CDM_260913-050401-138902-904825
OPS 5390 (11389)
2026-09-13T
05:04:54+0000
1.551 km
极远距离
6.021853E-6 低风险 0.51
CDM_260911-215201-244302-904828
SL-8 R/B (12443)
2026-09-11T
21:52:56+0000
1.404 km
极远距离
5.486904E-6 低风险 0.5
CDM_260913-153102-548102-904823
2026-09-13T
15:31:19+0000
2.580 km
极远距离
1.422128E-6 低风险 0.38
与全量物体交会距离演化趋势
与全量物体交会风险概率演化趋势